Погода в Ярене

Науру     0°32′21″N   166°54′45″E
темп.,
°C
ветер,
м/с
пор.,
м/с
влажн.,
%
обл.,
%
осадки,
мм/ч
давл.,
гПа
погр.,
м
14 апреля, ср
ср1400:00+27ссв44806 4.2 1009309
03:00+28ссв447632 1.8 1007586
06:00+28св447786 3.1 1007480
09:00+27св227922 4.0 1009105
12:00+28св11735 5.6 1009209
15:00+28сз11675 2.1 1006376
18:00+28сз116592 2.1 1007615
21:00+28ссз116676 0.0 1009532
15 апреля, чт
чт1500:00+28ссз116731 0.0 1009418
03:00+28ссв116838 0.0 1007477
06:00+28всв116936 0.0 1008418
09:00+28в2271100 1.5 1010214
12:00+28в116798 1.5 1009443
15:00+28ююв116660 0.0 1007617
18:00+28юз226699 0.1 1007803
21:00+27юз3378100 2.0 1010213
16 апреля, пт
пт1600:00+28юз3274100 3.3 1010503
03:00+27ю117591 1.3 1008227
06:00+27юв1272100 1.9 1009347
09:00+28вюв347391 0.0 1011546
12:00+28юв457331 0.0 1010690
15:00+28юв557293 0.0 1007791
18:00+28вюв557392 0.0 1007809
21:00+28в5574100 0.0 1009848
17 апреля, сб
сб1700:00+28в557578 0.0 1009848
03:00+28вюв567614 0.1 1007775
06:00+28вюв66766 0.1 1008707
09:00+28в677697 0.3 1010674
12:00+28вюв667640 0.4 1009624
15:00+28в77789 0.8 1006641
18:00+28в557698 0.1 1007761
21:00+28в567696 0.0 1009707
18 апреля, вс
вс1800:00+28всв4579100 0.3 1009524
03:00+28всв4578100 1.3 1007660
06:00+28в4577100 1.6 1007725
09:00+28в667895 0.0 1009785
12:00+28в5577100 0.1 1008758
15:00+28вюв34748 0.0 1006800
18:00+28в347392 0.0 1006801
21:00+27в4479100 0.8 1008427